Regional Weather Roundup
Issued by NWS

Home | Current Version | Previous Version | Graphics & Text | Print | Product List | Glossary On
Versions: 1 2 3 4 5 6 7 8 9 10 11 12 13 14 15 16 17 18 19 20 21 22 23 24 25 26 27 28 29 30 31 32 33 34 35 36 37 38 39 40 41 42 43 44 45 46 47 48 49 50
000
ASUS43 KLOT 201858
RWRIL

ILLINOIS REGIONAL WEATHER ROUNDUP
NATIONAL WEATHER SERVICE CHICAGO/ROMEOVILLE IL
200 PM CDT WED AUG 20 2014

NOTE: "FAIR" INDICATES FEW OR NO CLOUDS BELOW 12,000 FEET WITH NO
SIGNIFICANT WEATHER AND/OR OBSTRUCTIONS TO VISIBILITY.

* THESE STATIONS ARE NOT UNDER NWS QUALITY CONTROL. THEY ALSO MAY NOT
  REPORT WEATHER SUCH AS PRECIPITATION OR FOG.

ILZ001-002-007-009-015-016-024-202000-
NORTHWEST ILLINOIS

CITY           SKY/WX    TMP DP  RH WIND       PRES   REMARKS
MOLINE         LGT RAIN  77  70  79 SE7       29.87F
$$

ILZ003-004-008-010-011-017-018-202000-
NORTH CENTRAL ILLINOIS

CITY           SKY/WX    TMP DP  RH WIND       PRES   REMARKS
ROCKFORD       NOT AVBL
$$

ILZ005-006-012>014-019>023-202000-
NORTHEAST ILLINOIS

CITY           SKY/WX    TMP DP  RH WIND       PRES   REMARKS
CHICAGO-OHARE  PTSUNNY   85  64  49 SW14      29.89F HX  86
CHICAGO-MIDWAY PTSUNNY   85  67  54 SW14G25   29.90F HX  87
AURORA         PTSUNNY   84  65  52 W13       29.92S HX  86
WAUKEGAN       MOSUNNY   82  65  56 VRB5      29.88F HX  84
DUPAGE AIRPORT MOSUNNY   85  67  54 SW15      29.91F HX  87
WHEELING       MOSUNNY   85  67  54 W9        29.90F HX  87
NORTHERLY ISL    N/A     84  62  47 SW7         N/A  HX  85
$$

LMZ740>746-202000-
SOUTHERN LAKE MICHIGAN

STATION/POSITION SKY/WX   TEMP    WIND        PRES    VSBY  WAVE
                          AIR SEA DIR/SP/G                  HT/PER
                          (F)     (DEG/KT/KT) (MB)    (MI)  (FT/S)
SOUTHERN BUOY              69 70  190/  4/  4 1013.0R         0
WAUKEGAN HARBOR            81     260/ 10/ 15   N/A
HARRISON CRIB              79     230/ 12/ 18   N/A
BURNHAM HARBOR             82     270/  8/ 15   N/A
CALUMET HARBOR             83     230/  9/ 18 1011.6F
BURNS HARBOR               82     240/ 16/ 19   N/A
MICHIGAN CITY              76     270/  1/  2   N/A
MICHIGAN CITY 6N           75 74  160/  2/  4   N/A           1
ST. JOSEPH                 72 71  150/  2/  2   N/A           1/ 2
$$

ILZ025>027-034>036-040-047-049-050-058-095>099-202000-
WEST-CENTRAL ILLINOIS

CITY           SKY/WX    TMP DP  RH WIND       PRES   REMARKS
$$

ILZ028>032-037-038-041>044-048-051>054-059>061-202000-
CENTRAL ILLINOIS

CITY           SKY/WX    TMP DP  RH WIND       PRES   REMARKS
PEORIA         NOT AVBL
SPRINGFIELD    CLOUDY    74  71  91 SW7       29.97R
TAYLORVILLE    NOT AVBL
$$

ILZ033-039-045-046-055>057-062-063-202000-
EAST-CENTRAL ILLINOIS

CITY           SKY/WX    TMP DP  RH WIND       PRES   REMARKS
MATTOON        CLOUDY    71  68  90 CALM      30.00R
$$

ILZ079-100>102-202000-
SOUTHWEST ILLINOIS

CITY           SKY/WX    TMP DP  RH WIND       PRES   REMARKS
ALTON          CLOUDY    79  73  83 SE14      29.98F HX  82
$$

ILZ064>066-069>071-074>076-080>082-084>086-088>090-092>094-202000-
SOUTH-CENTRAL ILLINOIS

CITY           SKY/WX    TMP DP  RH WIND       PRES   REMARKS
CARBONDALE     PTSUNNY   88  75  65 SW5       29.98F HX  97
MARION         PTSUNNY   88  75  66 CALM      30.00F HX  97
$$

ILZ067-068-072-073-078-083-087-091-202000-
SOUTHEAST ILLINOIS

CITY           SKY/WX    TMP DP  RH WIND       PRES   REMARKS
$$

ABBREVIATIONS USED IN REMARKS
   TC - TEMPERATURE IN CELSIUS
  WCI - WIND CHILL INDEX
   HX - HEAT INDEX
  VSB - VISIBILITY
$$



USA.gov is the U.S. government's official web portal to all federal, state and local government web resources and services.